, AK

(GMT )
Valdez Airport

Weather History for PAVD - February, 2013

Change the Weather History Date:

Saturday, February 23, 2013

  Actual Average Record
Temperature  
Mean Temperature 26 °F -  
Max Temperature 30 °F 32 °F 40 °F (1968)
Min Temperature 21 °F 21 °F 0 °F (1985)
Degree Days  
Heating Degree Days 40    
Moisture  
Dew Point 23 °F    
Average Humidity 90    
Maximum Humidity 100    
Minimum Humidity 69    
Precipitation  
Precipitation 0.00 in - - ()
Sea Level Pressure  
Sea Level Pressure 29.34 in    
Wind  
Wind Speed 1 mph (ESE)    
Max Wind Speed 8 mph    
Max Gust Speed -    
Visibility 6 miles    
Events Fog , Snow    
Averages and records for this station are not official NWS values.
T = Trace of Precipitation, MM = Missing Value Source: NWS Daily Summary

Daily Weather History Graph

Daily Weather History Graph

Search for Another Location

Airport or City:

Trip Planner

Search our weather history database for the weather conditions in past years. The results will help you decide how hot, cold, wet, or windy it might be!

Date:

Astronomy

Feb. 23, 2013 Rise Set
Actual Time 8:02 AM AKST 5:55 PM AKST
Civil Twilight 7:18 AM AKST 6:39 PM AKST
Nautical Twilight 6:28 AM AKST 7:29 PM AKST
Astronomical Twilight 5:38 AM AKST 8:19 PM AKST
Moon 3:59 PM AKST (2/23) 6:50 AM AKST (2/23)
Length of Visible Light 11h 21m
Length of Day
9h 53m
Waxing Gibbous, 96% of the Moon is Illuminated
Feb 23
Waxing Gibbous
Feb 25
Full
Mar 4
Last Quarter
Mar 11
New
Mar 19
First Quarter

Hourly Weather History & Observations

Time (AKST) Temp. Windchill Dew Point Humidity Pressure Visibility Wind Dir Wind Speed Gust Speed Precip Events Conditions
12:16 AM 24.8 °F 20.5 °F 15.8 °F 69% 29.44 in 10.0 mi ENE 3.5 mph - N/A   Overcast
2:16 AM 23.0 °F - 19.4 °F 86% 29.44 in 2.5 mi Calm Calm - N/A   Overcast
4:16 AM 23.0 °F 18.4 °F 21.2 °F 93% 29.42 in 3.0 mi ENE 3.5 mph - N/A   Overcast
5:47 AM 23.0 °F - 21.2 °F 93% 29.41 in 4.0 mi Calm Calm - N/A Snow Light Snow
5:56 AM 23.0 °F - 19.4 °F 86% 29.41 in 4.0 mi Calm Calm - N/A   Overcast
6:47 AM 23.0 °F - 19.4 °F 86% 29.41 in 3.0 mi Calm Calm - N/A Snow Light Snow
7:47 AM 21.2 °F - 19.4 °F 93% 29.40 in 3.0 mi Calm Calm - N/A Snow Light Snow
7:56 AM 21.2 °F 16.4 °F 19.4 °F 93% 29.40 in 3.0 mi East 3.5 mph - N/A   Overcast
8:47 AM 21.2 °F - 21.2 °F 100% 29.37 in 1.5 mi Calm Calm - N/A Snow Light Snow
9:16 AM 21.2 °F - 19.4 °F 93% 29.36 in 5.0 mi Calm Calm - N/A Snow Light Snow
9:36 AM 21.2 °F - 19.4 °F 93% 29.35 in 5.0 mi Calm Calm - N/A   Overcast
9:47 AM 21.2 °F - 19.4 °F 93% 29.35 in 7.0 mi Calm Calm - N/A   Overcast
10:47 AM 23.0 °F - 21.2 °F 93% 29.33 in 15.0 mi Calm Calm - N/A   Overcast
11:16 AM 24.8 °F - 21.2 °F 86% 29.31 in 10.0 mi Calm Calm - N/A   Overcast
11:47 AM 24.8 °F - 21.2 °F 86% 29.30 in 15.0 mi Calm Calm - N/A   Overcast
12:47 PM 24.8 °F - 19.4 °F 80% 29.28 in 15.0 mi Calm Calm - N/A   Overcast
1:36 PM 26.6 °F - 21.2 °F 80% 29.26 in 10.0 mi Calm Calm - N/A   Overcast
1:47 PM 26.6 °F 21.2 °F 21.2 °F 80% 29.26 in 15.0 mi SW 4.6 mph - N/A   Overcast
2:47 PM 26.6 °F - 21.2 °F 80% 29.25 in 4.0 mi Calm Calm - N/A Snow Light Snow
3:47 PM 26.6 °F - 24.8 °F 93% 29.24 in 10.0 mi Calm Calm - N/A Snow Light Snow
4:36 PM 26.6 °F - 24.8 °F 93% 29.26 in 10.0 mi Calm Calm - N/A   Mostly Cloudy
4:56 PM 26.6 °F - 26.6 °F 100% 29.26 in 0.2 mi Calm Calm - N/A   Overcast
5:16 PM 28.4 °F - 26.6 °F 93% 29.26 in 1.5 mi Calm Calm - N/A   Overcast
5:47 PM 28.4 °F 24.6 °F 24.8 °F 86% 29.27 in 0.8 mi WSW 3.5 mph - N/A Snow Light Snow
6:47 PM 28.4 °F - 26.6 °F 93% 29.29 in 0.5 mi Calm Calm - N/A Fog , Snow Snow
7:56 PM 28.4 °F - 28.4 °F 100% 29.32 in 1.5 mi Calm Calm - N/A   Overcast
8:16 PM 28.4 °F - 26.6 °F 93% 29.34 in 1.5 mi Calm Calm - N/A   Overcast
8:47 PM 28.4 °F - 26.6 °F 93% 29.34 in 3.0 mi Calm Calm - N/A Snow Light Snow
9:47 PM 28.4 °F - 26.6 °F 93% 29.35 in 7.0 mi Calm Calm - N/A   Mostly Cloudy
10:36 PM 30.2 °F 24.3 °F 26.6 °F 86% 29.37 in 10.0 mi SE 5.8 mph - N/A   Overcast
10:56 PM 30.2 °F - 28.4 °F 93% 29.38 in 2.5 mi Calm Calm - N/A   Overcast
11:16 PM 30.2 °F 22.6 °F 28.4 °F 93% 29.38 in 3.0 mi SE 8.1 mph - N/A   Overcast